Meteo Giornale » Osservazioni meteo Romania » Tirgu Mures

ore: 15:00 - Osservazioni Meteo Tirgu Mures
Lat. 46° 32' N Lon. 24° 32' E Alt. 308 metri s.l.m.

poco_nuvoloso

27 °C

Poco Nuvoloso

Temp. 24 Ore

15 °C

28 °C

Ovest

13 Km/h

Dew point 14 °C

Umidità 44 %

Visibilità  10 Km

Il sole sorge alle ore 06:43

Il sole tramonta alle ore 19:59

Data e Ora Cielo e Fenomeni T °C DP °C Um. % Pres. hPa Vis. km Vento km/h
Oggi h: 15:00 poco_nuvoloso Poco Nuvoloso 27 14 44 1020 10 O 13
Oggi h: 14:30 poco_nuvoloso Poco Nuvoloso 27 14 44 1020 10 NO 11.1
Oggi h: 14:00 poco_nuvoloso Poco Nuvoloso 26 15 50 1020 10 N 7.4
Oggi h: 13:30 nuvoloso Nuvoloso 26 16 54 1020 10 N 7.4
Oggi h: 13:00 nuvoloso Nuvoloso 25 17 61 1021 10 N 3.7
Oggi h: 12:30 nuvoloso Nuvoloso 24 18 69 1021 10 O/SO 9.3
Oggi h: 12:00 nuvoloso Nuvoloso 23 19 78 1021 10 N 5.5
Oggi h: 11:30 nuvoloso Nuvoloso 22 18 78 1021 10 O 7.4
Oggi h: 11:00 nuvoloso Nuvoloso 19 18 93 1021 10 N 5.5
Oggi h: 10:30 nuvoloso Nuvoloso 19 19 100 1021 10 N 3.7
Oggi h: 10:00 molto_nuvoloso Molto Nuvoloso 18 18 100 1021 9 N 5.5
Oggi h: 09:30 foschia Foschia 18 17 93 1021 1 N 3.7
Oggi h: 09:00 nebbia Nebbia 17 17 100 1021 0.35 N 3.7
Oggi h: 08:30 nebbia Nebbia 17 17 100 1020 0.3 E/NE 9.3
Oggi h: 08:00 nebbia Nebbia 17 16 93 1020 0.2 N 5.5
Oggi h: 07:30 nebbia Nebbia 16 16 100 1020 0.2 E 7.4
Oggi h: 07:00 nebbia Nebbia 16 16 100 1020 0.2 N 5.5
Oggi h: 06:30 nebbia Nebbia 15 15 100 1020 0.45 N 5.5
Oggi h: 06:00 foschia Foschia 16 16 100 1020 2 N 3.7
Oggi h: 05:30 nebbia Nebbia 17 17 100 1020 0.35 N 5.5
Oggi h: 05:00 nebbia Nebbia 17 17 100 1020 0.3 N 3.7
Oggi h: 04:30 nebbia Nebbia 18 18 100 1020 0.35 N 1.8
Oggi h: 04:00 foschia Foschia 18 18 100 1020 4 N 1.8
Oggi h: 03:30 sereno Sereno 18 18 100 1020 6 N 3.7
Oggi h: 03:00 sereno Sereno 19 19 100 1020 10 N 1.8
Oggi h: 02:30 sereno Sereno 19 19 100 1020 10 E/NE 7.4
Oggi h: 02:00 sereno Sereno 19 19 100 1020 10 E 7.4
Oggi h: 01:30 sereno Sereno 20 19 93 1020 10 N 3.7
Oggi h: 01:00 sereno Sereno 20 19 93 1019 10 E 7.4
Oggi h: 00:30 coperto_pioggia Pioggia 20 19 93 1020 10 N 5.5
Oggi h: 00:00 coperto_pioggia Pioggia 20 19 93 1019 10 SO 11.1
Ieri h: 23:30 coperto_pioggia Pioggia 21 19 88 1019 10 N 3.7
Ieri h: 23:00 poco_nuvoloso Poco Nuvoloso 21 19 88 1019 10 N 1.8
Ieri h: 22:30 poco_nuvoloso Poco Nuvoloso 21 19 88 1019 10 S/SO 9.3
Ieri h: 22:00 sereno Sereno 21 19 88 1018 10 N 5.5
Ieri h: 21:30 sereno Sereno 21 19 88 1018 10 N 5.5
Ieri h: 21:00 sereno Sereno 21 19 88 1018 10 N 5.5
Ieri h: 20:30 sereno Sereno 23 20 83 1018 10 NE 7.4
Ieri h: 20:00 sereno Sereno 23 19 78 1017 10 E 7.4
Ieri h: 19:30 sereno Sereno 25 19 69 1017 10 E 9.3
Ieri h: 19:00 poco_nuvoloso Poco Nuvoloso 26 20 69 1017 10 E 11.1
Ieri h: 18:30 poco_nuvoloso Poco Nuvoloso 27 20 65 1017 10 E/NE 9.3
Ieri h: 18:00 nuvoloso Pioggia nelle vicinanze 26 20 69 1017 10 NE 14.8
Ieri h: 17:30 nuvoloso Nuvoloso 27 19 61 1017 10 O/NO 9.3
Ieri h: 17:00 poco_nuvoloso Poco Nuvoloso 28 19 58 1017 10 N 5.5
Ieri h: 16:30 nuvoloso Nuvoloso 28 20 61 1017 10 O 7.4
Ieri h: 16:00 nuvoloso Nuvoloso 28 20 61 1018 10 N 5.5